Grants-Milan, NM

7:12 PM MDT on May 21, 2018 (GMT -0600)
Grants-Milan Municipal

Weather History for KGNT - April, 2013

Change the Weather History Date:

Sunday, April 21, 2013

  Actual Average Record
Temperature  
Mean Temperature 49 °F -  
Max Temperature 72 °F 68 °F 85 °F (1989)
Min Temperature 26 °F 29 °F 19 °F (1998)
Degree Days  
Heating Degree Days 16    
Moisture  
Dew Point 14 °F    
Average Humidity 26    
Maximum Humidity 51    
Minimum Humidity 9    
Precipitation  
Precipitation 0.00 in - - ()
Sea Level Pressure  
Sea Level Pressure 30.16 in    
Wind  
Wind Speed 7 mph (NW)    
Max Wind Speed 21 mph    
Max Gust Speed 29 mph    
Visibility 10 miles    
Events      
Averages and records for this station are not official NWS values.
T = Trace of Precipitation, MM = Missing Value Source: NWS Daily Summary

Daily Weather History Graph

Daily Weather History Graph

Search for Another Location

Airport or City:

Astronomy

Apr. 21, 2013 Rise Set
Actual Time 6:31 AM MDT 7:49 PM MDT
Civil Twilight 6:05 AM MDT 8:15 PM MDT
Nautical Twilight 5:33 AM MDT 8:47 PM MDT
Astronomical Twilight 5:00 AM MDT 9:20 PM MDT
Moon 3:46 PM MDT (4/21) 3:45 AM MDT (4/21)
Length of Visible Light 14h 10m
Length of Day
13h 17m
Waxing Gibbous, 80% of the Moon is Illuminated
Apr 21
Waxing Gibbous
Apr 25
Full
May 2
Last Quarter
May 9
New
May 17
First Quarter

Hourly Weather History & Observations

Time (MDT) Temp. Windchill Dew Point Humidity Pressure Visibility Wind Dir Wind Speed Gust Speed Precip Events Conditions
12:15 AM 43.0 °F 39.5 °F 12.9 °F 30% 30.15 in 10.0 mi NNW 5.8 mph - N/A   Clear
12:35 AM 41.2 °F 39.2 °F 12.2 °F 31% 30.15 in 10.0 mi NW 3.5 mph - N/A   Clear
3:15 AM 32.2 °F - 11.1 °F 42% 30.16 in 10.0 mi Calm Calm - N/A   Clear
3:35 AM 30.6 °F 27.1 °F 11.3 °F 45% 30.16 in 10.0 mi NNW 3.5 mph - N/A   Clear
3:55 AM 29.8 °F - 11.7 °F 47% 30.17 in 10.0 mi Calm Calm - N/A   Clear
4:15 AM 29.1 °F 24.1 °F 11.7 °F 48% 30.18 in 10.0 mi WSW 4.6 mph - N/A   Clear
4:35 AM 30.7 °F - 12.9 °F 48% 30.18 in 10.0 mi Calm Calm - N/A   Clear
4:55 AM 29.1 °F 25.4 °F 12.7 °F 50% 30.18 in 10.0 mi NW 3.5 mph - N/A   Clear
5:15 AM 30.0 °F 19.5 °F 11.7 °F 46% 30.18 in 10.0 mi NW 13.8 mph - N/A   Clear
5:35 AM 30.0 °F 19.5 °F 11.5 °F 46% 30.18 in 10.0 mi NW 13.8 mph - N/A   Clear
5:55 AM 30.9 °F 20.2 °F 12.2 °F 46% 30.19 in 10.0 mi NW 15.0 mph - N/A   Clear
6:15 AM 29.5 °F 19.9 °F 12.4 °F 49% 30.19 in 10.0 mi WNW 11.5 mph 16.1 mph N/A   Clear
6:35 AM 30.4 °F 22.2 °F 12.6 °F 48% 30.20 in 10.0 mi WNW 9.2 mph - N/A   Clear
6:55 AM 26.8 °F 17.7 °F 10.6 °F 51% 30.21 in 10.0 mi NNW 9.2 mph - N/A   Clear
7:15 AM 28.4 °F 23.3 °F 10.9 °F 48% 30.21 in 10.0 mi NNW 4.6 mph - N/A   Clear
7:35 AM 31.6 °F 28.3 °F 12.0 °F 44% 30.22 in 10.0 mi NNW 3.5 mph - N/A   Clear
7:55 AM 35.1 °F 32.2 °F 13.8 °F 42% 30.23 in 10.0 mi NNW 3.5 mph - N/A   Clear
8:15 AM 37.8 °F 34.2 °F 14.5 °F 39% 30.23 in 10.0 mi NW 4.6 mph - N/A   Clear
8:35 AM 40.6 °F 36.7 °F 14.9 °F 35% 30.24 in 10.0 mi NW 5.8 mph - N/A   Clear
8:55 AM 43.5 °F 40.9 °F 17.1 °F 35% 30.24 in 10.0 mi NW 4.6 mph - N/A   Clear
9:15 AM 46.4 °F 45.2 °F 17.2 °F 31% 30.24 in 10.0 mi NNW 3.5 mph - N/A   Clear
9:35 AM 48.6 °F - 17.6 °F 29% 30.24 in 10.0 mi NW 3.5 mph - N/A   Clear
9:55 AM 51.8 °F - 18.3 °F 27% 30.23 in 10.0 mi North 5.8 mph - N/A   Clear
10:15 AM 54.5 °F - 19.6 °F 26% 30.23 in 10.0 mi NNE 4.6 mph - N/A   Clear
10:35 AM 55.8 °F - 19.9 °F 25% 30.23 in 10.0 mi NNW 5.8 mph - N/A   Clear
10:55 AM 57.0 °F - 19.4 °F 23% 30.22 in 10.0 mi NNW 8.1 mph - N/A   Clear
11:15 AM 58.8 °F - 19.0 °F 21% 30.22 in 10.0 mi North 5.8 mph - N/A   Clear
11:35 AM 60.4 °F - 18.5 °F 20% 30.21 in 10.0 mi NE 6.9 mph - N/A   Clear
11:55 AM 60.8 °F - 17.1 °F 18% 30.20 in 10.0 mi North 3.5 mph - N/A   Clear
12:15 PM 63.5 °F - 14.9 °F 15% 30.20 in 10.0 mi North 5.8 mph - N/A   Clear
12:35 PM 64.0 °F - 14.5 °F 15% 30.18 in 10.0 mi North 6.9 mph - N/A   Clear
12:55 PM 65.1 °F - 14.0 °F 14% 30.17 in 10.0 mi NW 12.7 mph 19.6 mph N/A   Clear
1:15 PM 65.7 °F - 13.3 °F 13% 30.16 in 10.0 mi North 4.6 mph 18.4 mph N/A   Clear
1:35 PM 67.8 °F - 13.1 °F 12% 30.15 in 10.0 mi NW 6.9 mph 17.3 mph N/A   Clear
1:55 PM 68.5 °F - 11.7 °F 11% 30.14 in 10.0 mi Calm Calm - N/A   Clear
2:15 PM 69.8 °F - 9.5 °F 10% 30.14 in 10.0 mi WNW 15.0 mph 27.6 mph N/A   Clear
2:35 PM 70.3 °F - 10.0 °F 10% 30.14 in 10.0 mi WNW 16.1 mph 26.5 mph N/A   Clear
2:55 PM 70.0 °F - 9.3 °F 10% 30.13 in 10.0 mi WNW 12.7 mph 19.6 mph N/A   Clear
3:15 PM 70.2 °F - 8.4 °F 9% 30.12 in 10.0 mi NW 12.7 mph 24.2 mph N/A   Clear
3:35 PM 71.1 °F - 10.9 °F 10% 30.12 in 10.0 mi West 17.3 mph 25.3 mph N/A   Clear
3:55 PM 71.8 °F - 12.6 °F 10% 30.11 in 10.0 mi West 19.6 mph 25.3 mph N/A   Clear
4:15 PM 71.4 °F - 12.6 °F 10% 30.11 in 10.0 mi NNW 20.7 mph 28.8 mph N/A   Clear
4:35 PM 72.3 °F - 12.2 °F 10% 30.11 in 10.0 mi NW 15.0 mph 24.2 mph N/A   Scattered Clouds
4:55 PM 71.6 °F - 12.4 °F 10% 30.10 in 10.0 mi NW 11.5 mph 21.9 mph N/A   Scattered Clouds
5:15 PM 71.2 °F - 13.1 °F 11% 30.09 in 10.0 mi West 15.0 mph 23.0 mph N/A   Clear
5:35 PM 71.1 °F - 14.2 °F 11% 30.09 in 10.0 mi West 16.1 mph 25.3 mph N/A   Clear
5:55 PM 70.7 °F - 15.6 °F 12% 30.09 in 10.0 mi West 16.1 mph 19.6 mph N/A   Clear
6:15 PM 69.8 °F - 15.8 °F 13% 30.10 in 10.0 mi WNW 13.8 mph 19.6 mph N/A   Clear
6:35 PM 69.1 °F - 15.4 °F 13% 30.10 in 10.0 mi West 18.4 mph 26.5 mph N/A   Clear
6:55 PM 68.0 °F - 15.8 °F 13% 30.11 in 10.0 mi WNW 20.7 mph 26.5 mph N/A   Clear
7:15 PM 67.1 °F - 15.8 °F 14% 30.11 in 10.0 mi West 13.8 mph 23.0 mph N/A   Clear
7:35 PM 65.3 °F - 15.8 °F 15% 30.11 in 10.0 mi West 10.4 mph - N/A   Clear
7:55 PM 63.9 °F - 15.4 °F 15% 30.11 in 10.0 mi West 9.2 mph - N/A   Clear
8:15 PM 61.9 °F - 15.6 °F 17% 30.12 in 10.0 mi West 6.9 mph - N/A   Clear
8:35 PM 60.3 °F - 16.2 °F 18% 30.12 in 10.0 mi West 6.9 mph - N/A   Clear
8:55 PM 57.4 °F - 16.3 °F 20% 30.13 in 10.0 mi West 6.9 mph - N/A   Clear
9:15 PM 54.7 °F - 16.2 °F 22% 30.14 in 10.0 mi West 5.8 mph - N/A   Clear
9:35 PM 54.1 °F - 15.6 °F 22% 30.14 in 10.0 mi WSW 8.1 mph - N/A   Clear
9:55 PM 53.1 °F - 15.8 °F 23% 30.14 in 10.0 mi WSW 6.9 mph - N/A   Clear
10:15 PM 50.4 °F - 14.9 °F 24% 30.14 in 10.0 mi Calm Calm - N/A   Clear
10:35 PM 50.4 °F - 15.3 °F 25% 30.14 in 10.0 mi Calm Calm - N/A   Clear
10:55 PM 50.2 °F - 16.0 °F 26% 30.14 in 10.0 mi Calm Calm - N/A   Clear
11:15 PM 45.0 °F 40.1 °F 14.7 °F 30% 30.13 in 10.0 mi WNW 9.2 mph - N/A   Clear
11:35 PM 46.8 °F - 15.1 °F 28% 30.14 in 10.0 mi WSW 9.2 mph - N/A   Clear
11:55 PM 46.6 °F - 14.9 °F 28% 30.14 in 10.0 mi Calm Calm - N/A   Clear